Location: Balsareny
(41.8670°N, 1.8830°E)
Time: 13:11:12
(UTC+02:00)

ARIANE 6 FM1 Upper Stage - Visible Passes

Search period start: 08 May 2026 00:00
Search period end: 18 May 2026 00:00
Orbit: 526 x 602 km, 62.0° (Epoch: 8 May)

Date Brightness Start Highest point End Pass type
(mag) Time Alt. Az. Time Alt. Az. Time Alt. Az.
8 May 3.4 21:50:08 10° NW 21:53:56 45° WSW 21:57:43 10° SSE visible
9 May 4.2 21:49:52 10° WNW 21:53:21 30° WSW 21:56:49 10° S visible
10 May 4.8 21:49:47 10° WNW 21:52:43 20° WSW 21:55:39 10° SSW visible
11 May 5.2 21:50:04 10° W 21:52:03 14° WSW 21:54:03 10° SW visible
